{"data":{"norad_id":67310,"epoch":"2026-05-24T17:13:00.525216Z","epoch_age_seconds":109331,"freshness":"FRESH","line1":"1 67310U 26002F   26144.71736719  .00013206  00000+0  48836-3 0  9998","line2":"2 67310  42.9997 256.1465 0001955 272.9608  87.1020 15.27592084 22704","mean_motion":15.27592084,"eccentricity":0.0001955,"inclination_deg":42.9997,"raan_deg":256.1465,"arg_perigee_deg":272.9608,"mean_anomaly_deg":87.102,"bstar":0.00048836,"rev_number":2270,"period_min":94.266003017596,"perigee_km":481.6715576271,"apogee_km":484.35426724286,"semimajor_km":6861.149912435,"source":"CELESTRAK","updated_at":"2026-05-25T13:38:21.515568Z"}}